TimeMDT,TemperatureF,Dew PointF,Humidity,Sea Level PressureIn,VisibilityMPH,Wind Direction,Wind SpeedMPH,Gust SpeedMPH,PrecipitationIn,Events,Conditions,WindDirDegrees,DateUTC
12:53 AM,23.0,19.0,85,30.19,10.0,South,10.4,-,N/A,,Clear,170,2013-04-25 06:53:00
1:53 AM,25.0,21.0,85,30.17,10.0,SSE,5.8,-,N/A,,Clear,150,2013-04-25 07:53:00
2:53 AM,25.0,21.0,85,30.15,10.0,SSW,9.2,-,N/A,,Clear,200,2013-04-25 08:53:00
3:53 AM,26.1,21.0,81,30.14,10.0,South,5.8,-,N/A,,Clear,170,2013-04-25 09:53:00
4:53 AM,23.0,19.0,85,30.12,10.0,SSE,9.2,-,N/A,,Clear,160,2013-04-25 10:53:00
5:53 AM,25.0,19.0,78,30.10,10.0,SE,3.5,-,N/A,,Clear,140,2013-04-25 11:53:00
6:53 AM,30.0,25.0,82,30.08,10.0,SSE,4.6,-,N/A,,Clear,160,2013-04-25 12:53:00
7:53 AM,43.0,28.0,56,30.05,10.0,SW,9.2,-,N/A,,Clear,220,2013-04-25 13:53:00
8:53 AM,51.1,24.1,35,30.03,10.0,SW,12.7,-,N/A,,Clear,230,2013-04-25 14:53:00
9:53 AM,57.0,23.0,27,30.02,10.0,SW,18.4,-,N/A,,Clear,220,2013-04-25 15:53:00
10:53 AM,61.0,18.0,19,29.99,10.0,WSW,19.6,25.3,N/A,,Clear,240,2013-04-25 16:53:00
11:53 AM,64.0,17.1,16,29.98,10.0,SW,13.8,21.9,N/A,,Clear,230,2013-04-25 17:53:00
12:53 PM,66.0,10.0,11,29.93,10.0,WSW,13.8,23.0,N/A,,Clear,240,2013-04-25 18:53:00
1:53 PM,68.0,14.0,12,29.90,10.0,SSW,16.1,29.9,N/A,,Clear,210,2013-04-25 19:53:00
2:53 PM,69.1,10.9,11,29.86,10.0,West,8.1,27.6,N/A,,Clear,260,2013-04-25 20:53:00
3:53 PM,70.0,8.1,9,29.83,10.0,WSW,24.2,28.8,N/A,,Clear,240,2013-04-25 21:53:00
4:53 PM,71.1,8.1,9,29.82,10.0,West,15.0,25.3,N/A,,Clear,260,2013-04-25 22:53:00
5:53 PM,68.0,5.0,8,29.82,10.0,WSW,15.0,-,N/A,,Clear,240,2013-04-25 23:53:00
6:53 PM,66.0,12.0,12,29.82,10.0,West,11.5,-,N/A,,Clear,270,2013-04-26 00:53:00
7:53 PM,55.9,16.0,21,29.84,10.0,WNW,6.9,-,N/A,,Clear,300,2013-04-26 01:53:00
8:53 PM,46.9,21.0,36,29.88,10.0,NW,3.5,-,N/A,,Clear,320,2013-04-26 02:53:00
9:53 PM,41.0,21.0,45,29.89,10.0,Calm,Calm,-,N/A,,Clear,0,2013-04-26 03:53:00
10:53 PM,42.1,23.0,47,29.88,10.0,WNW,10.4,-,N/A,,Clear,300,2013-04-26 04:53:00
11:53 PM,34.0,23.0,64,29.93,10.0,Calm,Calm,-,N/A,,Clear,0,2013-04-26 05:53:00